Location: ???????
(60.4260°N, 46.9069°E)
Time: 05:19:08
(UTC+00:00)

Geosat - Pass Details

Date: 30 March 2020
Orbit: 763 x 766 km, 108.0° (Epoch: 05 June)

Event Time Altitude Azimuth Distance (km) Brightness Sun altitude
Rises 01:24:39 0° 38° (NE) 3,243 8.4 -7.7°
Reaches altitude 10° 01:26:56 10° 40° (NE) 2,314 7.6 -7.4°
Maximum altitude 01:32:00 84° 129° (SE) 778 4.1 -6.8°
Drops below altitude 10° 01:37:02 10° 218° (SW) 2,304 6.0 -6.3°
Enters shadow 01:38:46 - 219° (SW) 3,006 6.6 -6.1°
